AirNav   Air Wisconsin pilot careers
 
 759 users online  

52K Charles E Grutzmacher Municipal Airport
Onaga, Kansas, USA

GOING TO ONAGA?


FAA INFORMATION EFFECTIVE 19 JULY 2018

Location

FAA Identifier: 52K
Lat/Long: 39-29-52.6200N / 096-10-30.3000W
39-29.877000N / 096-10.505000W
39.4979500 / -96.1750833
(estimated)
Elevation: 1183 ft. / 361 m (estimated)
Variation: 06E (1985)
Time zone: UTC -5 (UTC -6 during Standard Time)
Zip code: 66521

Airport Operations

Airport use: Open to the public
Activation date: 01/1965
Control tower: no
ARTCC: KANSAS CITY CENTER
FSS: WICHITA FLIGHT SERVICE STATION
NOTAMs facility: ICT (NOTAM-D service available)
Attendance: UNATNDD
Wind indicator: yes
Segmented circle: no

Airport Communications

CTAF: 122.9

Nearby radio navigation aids

VOR radial/distance  VOR name  Freq  Var
MHKr043/31.2MANHATTAN VOR/DME110.2004E
TOPr302/36.2TOPEKA VORTAC117.8005E

Airport Services

Parking: tiedowns
Airframe service: NONE
Powerplant service: NONE
Bottled oxygen: NONE
Bulk oxygen: NONE

Runway Information

Runway 18/36

Dimensions: 2200 x 61 ft. / 671 x 19 m
WIDTH VARIES FM MIN 61 FT AT AER 36 TO MAX 136 FT AT MIDFLD.
Surface: turf, in good condition
RWY NR MIDFIELD HAS OCNL MINOR DEPRESSIONS.
Runway edge lights: AER 36 MKD WITH 4 WHITE LGTS ON 36 IN. PEDESTALS. FIRST 600 FT RY 36 LGTD. W SIDE ONLY.
Gradient: N
RUNWAY 18  RUNWAY 36
Latitude: 39-30.057500N39-29.696500N
Longitude: 096-10.483833W096-10.526167W
Elevation: 1177.0 ft.1166.0 ft.
Gradient: 0.5% UP
Traffic pattern: leftleft
Obstructions: 44 ft. tree, 645 ft. from runway, 162 ft. left of centerline, 14:1 slope to clear8 ft. road, 30 ft. from runway, 3:1 slope to clear

Airport Ownership and Management from official FAA records

Ownership: Publicly-owned
Owner: CITY OF ONAGA
PO BOX 298 - 319 PROSPECT ST.
ONAGA, KS 66521
Phone 785-889-4456
Manager: AUGUST HARTWICH, MAYOR
PO BOX 298
ONAGA, KS 66521
Phone (785) 889-4456

Airport Operational Statistics

Aircraft based on the field: 1
Single engine airplanes: 1
    
Aircraft operations: avg 25/month *
33% transient general aviation
33% local general aviation
33% military
* for 12-month period ending 31 July 2017

Instrument Procedures

There are no published instrument procedures at 52K.

Some nearby airports with instrument procedures:

KMYZ - Marysville Municipal Airport (30 nm NW)
KMHK - Manhattan Regional Airport (31 nm SW)
KTOP - Philip Billard Municipal Airport (36 nm SE)
KFRI - Marshall Army Airfield (38 nm SW)
KFOE - Topeka Regional Airport (41 nm SE)
 
Loc | Ops | Rwys | IFR | FBO | Links
Com | Nav | Svcs | Stats | Notes

Kansas City Aviation Department
 
Area around 52K (Charles E Grutzmacher Municipal Airport)
 
Road maps at: MapQuest Bing Google
 
Aerial photo
WARNING: Photo may not be current or correct
Aerial photo of 52K (Charles E Grutzmacher Municipal Airport)
Taken in the Fall of 2003

Do you have a better or more recent aerial photo of Charles E Grutzmacher Municipal Airport that you would like to share? If so, please send us your photo.

 
Sectional chart

 
Airport distance calculator
Flying to Charles E Grutzmacher Municipal Airport? Find the distance to fly.

From to 52K

Sunrise and sunset
Times for 15-Aug-2018
 Local
(UTC-5)
 Zulu
(UTC)
Morning civil twilight06:0911:09
Sunrise06:3811:38
Sunset20:2001:20
Evening civil twilight20:4901:49

Current date and time
Zulu (UTC)  15-Aug-2018 11:55:37
Local (UTC-5)  15-Aug-2018 06:55:37
 
METAR
KMYZ 
30nm NW 
151135Z AUTO 32005KT 4SM BR OVC013 19/19 A2989 RMK AO2
KMHK 
32nm SW 
151132Z AUTO VRB03KT 10SM SCT022 SCT043 OVC060 21/20 A2988 RMK AO2 RAE08 P0000 T02060200
KTOP 
36nm SE 
151053Z AUTO 00000KT 10SM OVC009 22/22 A2984 RMK AO2 SLP095 T02220222
KFRI 
39nm SW 
151131Z AUTO 36005KT 10SM SCT020 BKN030 OVC035 21/19 A2988 RMK AO2 RAE1058DZB1058E01 SLP108
KFOE 
42nm SE 
151053Z 26003KT 10SM OVC008 22/22 A2985 RMK AO2 SLP096 T02220217
KFNB 
44nm NE 
151132Z AUTO 32005KT 5SM BR BKN004 OVC008 20/20 A2986 RMK AO2 RAE01 P0000 T02000200 $
TAF
KMHK 
32nm SW 
150520Z 1506/1606 VRB04KT P6SM SCT025 OVC040 FM150700 VRB04KT P6SM SCT010 OVC015 FM150800 36007KT P6SM BKN008 OVC015 FM151600 01007KT P6SM SCT025 BKN045
KTOP 
36nm SE 
150520Z 1506/1606 00000KT P6SM VCSH SCT025 BKN060 FM150900 VRB04KT P6SM SCT015 BKN025 FM151000 34004KT P6SM BKN007 OVC016 FM151700 34006KT P6SM BKN016
KFRI 
39nm SW 
150926Z 1509/1614 VRB06KT 4800 BR BKN023 QNH2982INS BECMG 1514/1515 36009KT 9999 NSW BKN025 QNH2987INS BECMG 1517/1518 03012KT 9999 SCT020 QNH2985INS BECMG 1520/1521 36009KT 9999 SCT030 QNH2985INS BECMG 1605/1606 01006KT 9999 FEW030 QNH2993INS TX28/1522Z TN20/1511Z
NOTAMs
Click for the latest NOTAMs
NOTAMs are issued by the DoD/FAA and will open in a separate window not controlled by AirNav.

 

 
 

Would you like to see your business listed on this page?

 If your business provides an interesting product or service to pilots, flight crews, aircraft, or users of the Charles E Grutzmacher Municipal Airport, you should consider listing it here.  To start the listing process, click on the button below
 
Add a business
 

Other Pages about Charles E Grutzmacher Municipal Airport

Update a link
 
Copyright © AirNav, LLC. All rights reserved. Privacy Policy  Contact